Find Starlink 30811

NORAD ID: 58167 Int'l Des: 2023-166 Owner: SPXS Country: US Constellation: starlink operational
LEOCIRCULAR

当前视图

正在加载3D地球...

About Starlink 30811

Starlink 30811 (NORAD 58167) is a starlink constellation satellite (v2 mini) launched Oct 29, 2023 by SPXS of US. It operates in LEO, CIRCULAR orbit with a mass of 730.00 kg.

关于 Starlink 30811

正在加载描述...

即将过境

Passes for default location (London). Set your location on the main map for personalized predictions.

高度历史

Loading altitude history...

两行轨道根数

1 58167U 23166T 26169.55949473 .00000031 00000-0 12783-4 0 9994
2 58167 53.1602 110.3274 0001403 95.8370 264.2791 15.31699511148481
Epoch: Jun 18, 2026 • Age: 14 hours

当前状态

高度 479.7 km
速度 7.63 km/s
星下点 -27.72°S, 126.68°E
发射日期 Oct 29, 2023
运行时间 2.6 years
类型 internet

技术详情

分类 Payload
质量 730.00 kg
干质量 700.00 kg
总质量 730.00 kg
长度 0.30 m
直径 4.10 m
跨度 29.00 m
形状 Box + pan
制造商 SPXS
平台类型 Starlink V2M
阶段状态 In Orbit
所有者/国家 SPXS/US

Most Searched